Location: ??
(35.4627°N, 139.3695°E)
Time: 05:47:49
(UTC+00:00)

Cosmos 773 Rocket - Pass Details

Date: 25 November 2020
Orbit: 746 x 776 km, 74.1° (Epoch: 20 January)

Event Time Altitude Azimuth Distance (km) Brightness Sun altitude
Exits shadow 19:25:00 49° 345° (NNW) 991 4.3 -24.8°
Maximum altitude 19:26:29 89° 74° (ENE) 777 3.9 -24.5°
Drops below altitude 10° 19:31:43 10° 164° (SSE) 2,298 6.8 -23.5°
Sets 19:34:04 0° 164° (SSE) 3,215 7.6 -23.0°
